GW5883 Weather Reports


Display with metric or nautical units.
time (UTC)temp
F
wind
direction
speed
MPH
gust
MPH
rain 1hr
in
rain 24hr
in
rain mn
in
humidity
%
barometer
mb
20260510225432 74 90 1.0 1.0 0.00 0.00 0.00 61 1019.4
20260510224927 75 137 1.0 1.0 0.00 0.00 0.00 61 1019.1
20260510224424 76 114 1.0 1.0 0.00 0.00 0.00 59 1019.1
20260510223920 77 123 0.0 0.0 0.00 0.00 0.00 56 1019.0
20260510223418 78 140 0.0 0.0 0.00 0.00 0.00 53 1019.0
20260510222915 78 168 2.0 3.0 0.00 0.00 0.00 47 1019.3
20260510222413 78 147 0.0 0.0 0.00 0.00 0.00 49 1019.1
20260510221907 79 354 0.0 1.0 0.00 0.00 0.00 48 1018.9
20260510221405 79 131 0.0 0.0 0.00 0.00 0.00 47 1019.2
20260510220901 79 92 1.0 2.0 0.00 0.00 0.00 47 1019.0
20260510220357 79 156 0.0 1.0 0.00 0.00 0.00 48 1018.8
20260510215853 79 117 0.0 0.0 0.00 0.00 0.00 48 1018.9
20260510215351 79 126 0.0 0.0 0.00 0.00 0.00 46 1018.9
20260510214848 80 72 1.0 2.0 0.00 0.00 0.00 47 1018.9
20260510214345 80 40 2.0 2.0 0.00 0.00 0.00 45 1018.8
20260510213842 80 60 2.0 2.0 0.00 0.00 0.00 43 1018.9
20260510213339 80 59 3.0 4.0 0.00 0.00 0.00 43 1018.8
20260510212835 81 80 3.0 3.0 0.00 0.00 0.00 43 1019.2
20260510212332 81 137 0.0 0.0 0.00 0.00 0.00 45 1019.0
20260510211829 80 71 0.0 1.0 0.00 0.00 0.00 44 1019.0
20260510211325 81 96 0.0 1.0 0.00 0.00 0.00 44 1018.9
20260510210821 81 160 0.0 0.0 0.00 0.00 0.00 45 1019.0
20260510210316 81 161 0.0 1.0 0.00 0.00 0.00 43 1019.0
20260510205815 81 352 2.0 3.0 0.00 0.00 0.00 45 1019.0
20260510205311 80 155 1.0 1.0 0.00 0.00 0.00 48 1018.9
20260510204807 80 113 1.0 1.0 0.00 0.00 0.00 48 1018.9
20260510204304 81 130 0.0 1.0 0.00 0.00 0.00 47 1018.7
20260510203800 82 107 1.0 1.0 0.00 0.00 0.00 44 1018.9
20260510203258 82 142 1.0 2.0 0.00 0.00 0.00 48 1019.1
20260510202758 81 150 0.0 0.0 0.00 0.00 0.00 48 1018.9
20260510202254 81 35 2.0 2.0 0.00 0.00 0.00 45 1019.0
20260510201751 81 151 0.0 1.0 0.00 0.00 0.00 46 1019.2
20260510201248 81 124 0.0 0.0 0.00 0.00 0.00 46 1019.0
20260510200744 81 23 4.0 4.0 0.00 0.00 0.00 46 1019.1
20260510200242 81 151 0.0 0.0 0.00 0.00 0.00 47 1019.0
20260510195738 81 156 0.0 0.0 0.00 0.00 0.00 49 1019.1
20260510195235 81 49 1.0 2.0 0.00 0.00 0.00 47 1019.0
20260510194734 81 134 0.0 0.0 0.00 0.00 0.00 46 1019.1
20260510194232 81 58 2.0 2.0 0.00 0.00 0.00 45 1019.3
20260510193727 82 63 1.0 2.0 0.00 0.00 0.00 47 1019.3
20260510193222 82 146 0.0 1.0 0.00 0.00 0.00 46 1019.3
20260510192718 81 151 0.0 0.0 0.00 0.00 0.00 52 1019.1
20260510192213 81 335 2.0 2.0 0.00 0.00 0.00 48 1019.2
20260510191709 80 136 0.0 0.0 0.00 0.00 0.00 52 1019.2
20260510191206 80 79 1.0 2.0 0.00 0.00 0.00 51 1019.1
20260510190703 81 183 1.0 3.0 0.00 0.00 0.00 50 1019.1
20260510190201 82 37 1.0 2.0 0.00 0.00 0.00 46 1019.3
20260510185657 82 189 2.0 2.0 0.00 0.00 0.00 47 1019.2
20260510185155 82 142 0.0 0.0 0.00 0.00 0.00 49 1019.2
20260510184652 82 123 1.0 1.0 0.00 0.00 0.00 45 1019.1
20260510184148 84 148 0.0 0.0 0.00 0.00 0.00 43 1019.1
20260510183644 84 150 0.0 1.0 0.00 0.00 0.00 43 1019.2
20260510183138 85 185 0.0 1.0 0.00 0.00 0.00 44 1019.1
20260510182636 84 168 1.0 1.0 0.00 0.00 0.00 39 1019.2
20260510182131 84 151 1.0 1.0 0.00 0.00 0.00 37 1019.0
20260510181628 84 110 0.0 0.0 0.00 0.00 0.00 36 1019.2
20260510181125 84 156 1.0 1.0 0.00 0.00 0.00 38 1019.3
20260510180621 84 84 0.0 0.0 0.00 0.00 0.00 37 1019.4
20260510180119 84 197 1.0 1.0 0.00 0.00 0.00 42 1019.7
20260510175614 85 60 4.0 6.0 0.00 0.00 0.00 35 1019.5
20260510175110 84 170 1.0 2.0 0.00 0.00 0.00 39 1019.5
20260510174608 83 135 0.0 1.0 0.00 0.00 0.00 37 1019.4
20260510174105 84 161 2.0 3.0 0.00 0.00 0.00 36 1019.7
20260510173600 83 119 0.0 1.0 0.00 0.00 0.00 40 1019.6
20260510173058 83 196 0.0 1.0 0.00 0.00 0.00 44 1019.6
20260510172553 82 142 0.0 1.0 0.00 0.00 0.00 40 1019.8
20260510172049 81 149 0.0 0.0 0.00 0.00 0.00 44 1019.9
20260510171546 81 128 1.0 1.0 0.00 0.00 0.00 40 1019.8
20260510171044 81 139 0.0 0.0 0.00 0.00 0.00 44 1019.9
20260510170540 81 116 1.0 1.0 0.00 0.00 0.00 41 1019.9
20260510170037 82 22 1.0 2.0 0.00 0.00 0.00 42 1019.7
20260510165532 82 190 0.0 0.0 0.00 0.00 0.00 43 1019.8
20260510165029 82 133 0.0 0.0 0.00 0.00 0.00 41 1019.9
20260510164526 82 156 3.0 3.0 0.00 0.00 0.00 38 1019.7
20260510164023 82 104 1.0 2.0 0.00 0.00 0.00 39 1019.6
20260510163518 81 156 0.0 0.0 0.00 0.00 0.00 45 1019.7
20260510163014 81 127 1.0 1.0 0.00 0.00 0.00 40 1019.9
20260510162510 81 112 1.0 1.0 0.00 0.00 0.00 44 1019.7
20260510162006 80 117 2.0 2.0 0.00 0.00 0.00 45 1019.7
20260510161502 79 158 1.0 1.0 0.00 0.00 0.00 43 1019.6
20260510160959 79 133 3.0 4.0 0.00 0.00 0.00 47 1019.9
20260510160457 78 111 1.0 1.0 0.00 0.00 0.00 47 1019.8
20260510155954 78 308 1.0 2.0 0.00 0.00 0.00 48 1019.8
20260510155452 78 189 1.0 1.0 0.00 0.00 0.00 49 1019.8
20260510154949 77 130 0.0 1.0 0.00 0.00 0.00 49 1019.5
20260510154444 77 69 1.0 2.0 0.00 0.00 0.00 49 1019.5
20260510153943 77 110 2.0 3.0 0.00 0.00 0.00 51 1019.8
20260510153440 77 218 1.0 1.0 0.00 0.00 0.00 51 1019.5
20260510152937 76 30 1.0 2.0 0.00 0.00 0.00 51 1019.6
20260510152435 76 131 0.0 1.0 0.00 0.00 0.00 51 1019.4
20260510151931 75 123 1.0 1.0 0.00 0.00 0.00 56 1019.3
20260510151428 75 145 0.0 1.0 0.00 0.00 0.00 61 1019.3
20260510150924 75 129 0.0 0.0 0.00 0.00 0.00 57 1019.3
20260510150420 74 208 1.0 2.0 0.00 0.00 0.00 54 1019.5
20260510145916 73 134 0.0 0.0 0.00 0.00 0.00 57 1019.3
20260510145413 73 128 0.0 1.0 0.00 0.00 0.00 57 1019.4
20260510144909 73 144 0.0 1.0 0.00 0.00 0.00 61 1019.4
20260510144406 72 167 0.0 1.0 0.00 0.00 0.00 63 1019.5
20260510143900 72 188 1.0 2.0 0.00 0.00 0.00 64 1019.6
20260510143357 71 136 0.0 0.0 0.00 0.00 0.00 67 1019.8
20260510142854 71 131 0.0 0.0 0.00 0.00 0.00 67 1019.8
20260510142350 71 132 0.0 0.0 0.00 0.00 0.00 69 1019.8
20260510141847 70 120 0.0 0.0 0.00 0.00 0.00 69 1019.5
20260510141345 69 159 1.0 1.0 0.00 0.00 0.00 69 1019.6
20260510140842 69 140 0.0 0.0 0.00 0.00 0.00 72 1019.6
20260510140338 69 166 1.0 1.0 0.00 0.00 0.00 74 1019.5
20260510135837 68 165 1.0 1.0 0.00 0.00 0.00 73 1019.6
20260510135332 68 138 0.0 0.0 0.00 0.00 0.00 75 1019.5
20260510134831 67 140 0.0 0.0 0.00 0.00 0.00 76 1019.4
20260510134327 67 151 0.0 0.0 0.00 0.00 0.00 82 1019.3
20260510133823 66 146 1.0 2.0 0.00 0.00 0.00 82 1019.6
20260510133319 65 137 0.0 0.0 0.00 0.00 0.00 84 1019.4
20260510132815 65 141 0.0 0.0 0.00 0.00 0.00 84 1019.4
20260510132314 64 152 0.0 0.0 0.00 0.00 0.00 86 1019.4
20260510131810 63 142 0.0 0.0 0.00 0.00 0.00 88 1019.4
20260510131308 62 124 0.0 0.0 0.00 0.00 0.00 90 1019.3
20260510130804 62 134 0.0 0.0 0.00 0.00 0.00 91 1019.4
20260510130301 61 164 0.0 0.0 0.00 0.00 0.00 91 1019.3
20260510125757 60 143 1.0 1.0 0.00 0.00 0.00 92 1019.4
20260510125253 60 136 0.0 0.0 0.00 0.00 0.00 92 1019.4
20260510124750 59 143 0.0 0.0 0.00 0.00 0.00 93 1019.3
20260510124248 59 142 0.0 0.0 0.00 0.00 0.00 94 1019.2
20260510123743 58 132 0.0 0.0 0.00 0.00 0.00 94 1019.2
20260510123239 58 151 0.0 0.0 0.00 0.00 0.00 95 1019.4
20260510122730 58 137 0.0 0.0 0.00 0.00 0.00 95 1019.4
20260510122226 57 137 0.0 0.0 0.00 0.00 0.00 96 1019.2
20260510121722 57 143 0.0 0.0 0.00 0.00 0.00 97 1019.2
20260510121220 57 111 0.0 0.0 0.00 0.00 0.00 97 1019.4
20260510120717 57 103 1.0 1.0 0.00 0.00 0.00 97 1019.5
20260510120213 57 138 0.0 0.0 0.00 0.00 0.00 97 1019.1
20260510115709 56 120 0.0 0.0 0.00 0.00 0.00 97 1019.1
20260510115209 56 140 0.0 0.0 0.00 0.00 0.00 97 1018.7
20260510114703 56 139 0.0 1.0 0.00 0.00 0.00 97 1019.2
20260510114200 56 127 0.0 0.0 0.00 0.00 0.00 97 1018.8
20260510113655 55 47 1.0 2.0 0.00 0.00 0.00 97 1019.0
20260510113152 55 143 0.0 0.0 0.00 0.00 0.00 96 1018.4
20260510112649 55 141 0.0 0.0 0.00 0.00 0.00 96 1018.4
20260510112146 55 141 0.0 0.0 0.00 0.00 0.00 96 1018.2
20260510111641 55 141 0.0 0.0 0.00 0.00 0.00 96 1018.0
20260510111138 55 143 0.0 0.0 0.00 0.00 0.00 95 1018.0
20260510110633 55 140 0.0 0.0 0.00 0.00 0.00 95 1018.0
20260510110131 55 141 0.0 0.0 0.00 0.00 0.00 95 1017.9
20260510105626 55 141 0.0 0.0 0.00 0.00 0.00 95 1017.5
20260510105120 55 139 0.0 0.0 0.00 0.00 0.00 95 1017.7
20260510104618 55 142 0.0 0.0 0.00 0.00 0.00 95 1017.6
20260510104114 55 143 0.0 0.0 0.00 0.00 0.00 95 1017.4
20260510103611 55 142 0.0 0.0 0.00 0.00 0.00 95 1017.4
20260510103107 56 141 0.0 0.0 0.00 0.00 0.00 94 1017.3
20260510102603 56 141 0.0 0.0 0.00 0.00 0.00 94 1017.1
20260510102059 56 136 0.0 0.0 0.00 0.00 0.00 94 1017.2
20260510101557 56 144 0.0 0.0 0.00 0.00 0.00 94 1017.2
20260510101055 56 148 0.0 0.0 0.00 0.00 0.00 93 1017.0
20260510100551 56 143 0.0 0.0 0.00 0.00 0.00 93 1017.2
20260510100048 56 144 0.0 0.0 0.00 0.00 0.00 93 1017.0
20260510095544 56 146 0.0 0.0 0.00 0.00 0.00 92 1017.2
20260510095043 56 142 0.0 0.0 0.00 0.00 0.00 91 1017.3
20260510094538 56 143 0.0 0.0 0.00 0.00 0.00 91 1017.1
20260510094034 56 149 0.0 0.0 0.00 0.00 0.00 90 1017.2
20260510093530 56 131 0.0 0.0 0.00 0.00 0.00 90 1017.0
20260510093027 56 138 0.0 0.0 0.00 0.00 0.00 91 1017.0
20260510092524 56 136 0.0 0.0 0.00 0.00 0.00 90 1017.0
20260510092024 56 142 0.0 0.0 0.00 0.00 0.00 89 1016.7
20260510091521 56 144 0.0 0.0 0.00 0.00 0.00 89 1016.7
20260510091017 56 149 0.0 0.0 0.00 0.00 0.00 89 1016.7
20260510090514 55 143 0.0 0.0 0.00 0.00 0.00 89 1016.5
20260510090010 55 167 0.0 0.0 0.00 0.00 0.00 90 1016.5
20260510085504 55 145 0.0 0.0 0.00 0.00 0.00 91 1016.6
20260510085001 55 145 0.0 0.0 0.00 0.00 0.00 91 1016.5
20260510084457 54 145 0.0 0.0 0.00 0.00 0.00 91 1016.7
20260510083954 54 148 0.0 0.0 0.00 0.00 0.00 94 1016.6
20260510083451 53 140 0.0 0.0 0.00 0.00 0.00 94 1016.6
20260510082946 53 145 0.0 0.0 0.00 0.00 0.00 95 1016.7
20260510082444 53 145 0.0 0.0 0.00 0.00 0.00 95 1016.6
20260510081943 53 145 0.0 0.0 0.00 0.00 0.00 94 1016.7
20260510081439 53 145 0.0 0.0 0.00 0.00 0.00 94 1016.7
20260510080936 53 144 0.0 0.0 0.00 0.00 0.00 94 1016.5
20260510080434 53 143 0.0 0.0 0.00 0.00 0.00 94 1016.7
20260510075931 53 143 0.0 0.0 0.00 0.00 0.00 94 1016.5
20260510075429 53 139 0.0 0.0 0.00 0.00 0.00 94 1016.4
20260510074926 53 145 0.0 0.0 0.00 0.00 0.00 94 1016.2
20260510074423 53 148 0.0 0.0 0.00 0.00 0.00 94 1016.0
20260510073919 53 143 0.0 0.0 0.00 0.00 0.00 94 1015.9
20260510073415 53 146 0.0 0.0 0.00 0.00 0.00 94 1015.9
20260510072911 53 143 0.0 0.0 0.00 0.00 0.00 94 1015.9
20260510072408 53 142 0.0 0.0 0.00 0.00 0.00 94 1015.6
20260510071903 53 141 0.0 0.0 0.00 0.00 0.00 94 1015.9
20260510071401 53 142 0.0 0.0 0.00 0.00 0.00 94 1015.7
20260510070859 53 144 0.0 0.0 0.00 0.00 0.00 94 1015.7
20260510070356 53 143 0.0 0.0 0.00 0.00 0.00 94 1016.0
20260510065856 53 145 0.0 0.0 0.00 0.00 0.00 94 1015.8
20260510065353 53 145 0.0 0.0 0.00 0.00 0.00 94 1015.8
20260510064849 53 145 0.0 0.0 0.00 0.00 0.00 94 1016.0
20260510064347 53 145 0.0 0.0 0.00 0.00 0.00 93 1016.0
20260510063843 53 142 0.0 0.0 0.00 0.00 0.00 93 1016.0
20260510063340 53 145 0.0 0.0 0.00 0.00 0.00 93 1016.0
20260510062837 54 142 0.0 0.0 0.00 0.00 0.00 93 1016.0
20260510062332 54 143 0.0 0.0 0.00 0.00 0.00 94 1015.8
20260510061827 54 145 0.0 0.0 0.00 0.00 0.00 93 1015.8
20260510061325 54 145 0.0 0.0 0.00 0.00 0.00 93 1015.7
20260510060820 54 145 0.0 0.0 0.00 0.00 0.00 93 1016.0
20260510060318 54 143 0.0 0.0 0.00 0.00 0.00 93 1015.8
20260510055815 54 143 0.0 0.0 0.00 0.00 0.00 93 1016.0
20260510055313 54 144 0.0 0.0 0.00 0.00 0.00 93 1015.9
20260510054813 54 143 0.0 0.0 0.00 0.00 0.00 93 1016.0
20260510054309 54 143 0.0 0.0 0.00 0.00 0.00 93 1016.0
20260510053804 54 143 0.0 0.0 0.00 0.00 0.00 93 1016.0
20260510053259 54 145 0.0 0.0 0.00 0.00 0.00 93 1015.8
20260510052756 54 143 0.0 0.0 0.00 0.00 0.00 93 1015.9
20260510052251 54 143 0.0 0.0 0.00 0.00 0.00 93 1016.0
20260510051748 54 144 0.0 0.0 0.00 0.00 0.00 93 1016.0
20260510051245 54 145 0.0 0.0 0.00 0.00 0.00 94 1016.0
20260510050741 54 146 0.0 0.0 0.00 0.00 0.00 94 1016.0
20260510050239 54 145 0.0 0.0 0.00 0.00 0.00 94 1015.7
20260510045735 54 141 0.0 0.0 0.00 0.00 0.00 93 1016.0
20260510045232 54 138 0.0 0.0 0.00 0.00 0.00 93 1015.8
20260510044728 54 145 0.0 0.0 0.00 0.00 0.00 93 1015.8
20260510044226 54 143 0.0 0.0 0.00 0.00 0.00 93 1015.9
20260510043721 54 140 0.0 0.0 0.00 0.00 0.00 93 1015.8
20260510043218 55 142 0.0 0.0 0.00 0.00 0.00 93 1015.8
20260510042716 55 141 0.0 0.0 0.00 0.00 0.00 93 1015.7
20260510042212 55 143 0.0 0.0 0.00 0.00 0.00 93 1015.9
20260510041709 55 143 0.0 0.0 0.00 0.00 0.00 92 1015.8
20260510041206 55 142 0.0 0.0 0.00 0.00 0.00 92 1015.8
20260510040702 55 145 0.0 0.0 0.00 0.00 0.00 92 1015.9
20260510040159 55 145 0.0 0.0 0.00 0.00 0.00 91 1015.9
20260510035655 55 144 0.0 0.0 0.00 0.00 0.00 91 1015.7
20260510035151 55 143 0.0 0.0 0.00 0.00 0.00 90 1015.9
20260510034647 56 143 0.0 0.0 0.00 0.00 0.00 90 1015.7
20260510034145 56 142 0.0 0.0 0.00 0.00 0.00 90 1016.0
20260510033641 56 143 0.0 0.0 0.00 0.00 0.00 90 1015.8
20260510033139 56 145 0.0 0.0 0.00 0.00 0.00 90 1015.7
20260510032635 56 145 0.0 0.0 0.00 0.00 0.00 89 1015.7
20260510032130 56 141 0.0 0.0 0.00 0.00 0.00 88 1015.7
20260510031625 57 141 0.0 0.0 0.00 0.00 0.00 88 1015.5
20260510031122 57 141 0.0 0.0 0.00 0.00 0.00 88 1015.7
20260510030616 57 141 0.0 0.0 0.00 0.00 0.00 87 1015.7
20260510030114 57 141 0.0 0.0 0.00 0.00 0.00 87 1015.8
20260510025612 57 140 0.0 0.0 0.00 0.00 0.00 88 1015.8
20260510025109 58 141 0.0 0.0 0.00 0.00 0.00 87 1015.5
20260510024606 58 141 0.0 0.0 0.00 0.00 0.00 86 1015.6
20260510024102 58 141 0.0 0.0 0.00 0.00 0.00 86 1015.6
20260510023558 58 141 0.0 0.0 0.00 0.00 0.00 86 1015.5
20260510023056 59 141 0.0 0.0 0.00 0.00 0.00 86 1015.5
20260510022556 59 142 0.0 0.0 0.00 0.00 0.00 85 1015.4
20260510022056 59 141 0.0 0.0 0.00 0.00 0.00 85 1015.4
20260510021552 59 143 0.0 0.0 0.00 0.00 0.00 83 1015.5
20260510021050 60 144 0.0 0.0 0.00 0.00 0.00 82 1015.3
20260510020544 60 141 0.0 0.0 0.00 0.00 0.00 82 1015.4
20260510020040 60 142 0.0 0.0 0.00 0.00 0.00 81 1015.1
20260510015535 60 141 0.0 0.0 0.00 0.00 0.00 80 1015.0
20260510015032 61 139 0.0 0.0 0.00 0.00 0.00 79 1015.0
20260510014528 61 140 0.0 0.0 0.00 0.00 0.00 78 1014.9
20260510014026 62 139 0.0 0.0 0.00 0.00 0.00 78 1015.0
20260510013520 62 139 0.0 0.0 0.00 0.00 0.00 77 1014.8
20260510013016 62 139 0.0 0.0 0.00 0.00 0.00 76 1014.9
20260510012510 63 131 0.0 0.0 0.00 0.00 0.00 75 1014.6
20260510012007 63 131 0.0 0.0 0.00 0.00 0.00 74 1014.7
20260510011501 64 129 0.0 0.0 0.00 0.00 0.00 72 1014.4
20260510010957 64 130 0.0 0.0 0.00 0.00 0.00 71 1014.3
20260510010454 65 130 0.0 0.0 0.00 0.00 0.00 69 1014.4
20260510005951 65 131 0.0 0.0 0.00 0.00 0.00 67 1014.4
20260510005447 66 131 0.0 0.0 0.00 0.00 0.00 67 1014.4
20260510004945 67 131 0.0 0.0 0.00 0.00 0.00 66 1014.4
20260510004441 67 130 0.0 0.0 0.00 0.00 0.00 67 1014.2
20260510003940 68 130 0.0 0.0 0.00 0.00 0.00 63 1014.1
20260510003436 68 130 0.0 0.0 0.00 0.00 0.00 64 1013.9
20260510002936 69 130 0.0 0.0 0.00 0.00 0.00 64 1014.0
20260510002433 69 136 0.0 0.0 0.00 0.00 0.00 65 1013.8
20260510001929 70 139 0.0 0.0 0.00 0.00 0.00 64 1014.0
20260510001427 70 139 0.0 0.0 0.00 0.00 0.00 63 1013.9
20260510000924 71 139 0.0 0.0 0.00 0.00 0.00 64 1014.1
20260510000421 71 139 0.0 0.0 0.00 0.00 0.00 63 1014.0
20260509235917 72 139 0.0 0.0 0.00 0.00 0.00 61 1014.0
20260509235414 72 141 0.0 0.0 0.00 0.00 0.00 59 1013.8
20260509234910 73 143 0.0 0.0 0.00 0.00 0.00 54 1013.9
20260509234407 73 139 0.0 0.0 0.00 0.00 0.00 54 1013.7
20260509233905 74 141 0.0 0.0 0.00 0.00 0.00 59 1013.9
20260509233403 74 140 0.0 0.0 0.00 0.00 0.00 54 1013.6
20260509232858 75 141 0.0 0.0 0.00 0.00 0.00 55 1013.7
20260509232356 75 137 0.0 0.0 0.00 0.00 0.00 51 1013.8
20260509231852 75 128 0.0 0.0 0.00 0.00 0.00 45 1013.9
20260509231349 75 144 0.0 0.0 0.00 0.00 0.00 50 1013.6
20260509230847 75 144 0.0 0.0 0.00 0.00 0.00 44 1013.7
20260509230343 76 129 0.0 0.0 0.00 0.00 0.00 52 1013.8
20260509225838 76 139 0.0 0.0 0.00 0.00 0.00 50 1013.7